JBU822 KPBI-KBOS

Flight info

Callsign JBU822
Flight time N/A
Altitude 31000
Route SLIDZ3 LENDS GRUBR Y299 SEELO WAALT Q131 EARZZ JAMIE Q133 JFK ROBUC3
Aircraft A320/M-SDE3FGHIRWY/LB1

Departure

Time 2026-05-06 18:16
Airport Palm Beach International Airport (KPBI)

Arrival

Time N/A
Airport Boston Logan International Airport (KBOS)
Time Latitude Longitude Altitude Speed Heading
2026-05-06 17:56 26.68524 -80.08892 22 ft 0 kts 347°
2026-05-06 18:03 26.68520 -80.08891 22 ft 2 kts 347°
2026-05-06 18:03 26.68503 -80.08887 25 ft 2 kts 347°
2026-05-06 18:03 26.68486 -80.08882 24 ft 2 kts 347°
2026-05-06 18:04 26.68469 -80.08878 25 ft 3 kts 339°
2026-05-06 18:04 26.68454 -80.08868 25 ft 2 kts 317°
2026-05-06 18:04 26.68443 -80.08853 24 ft 2 kts 289°
2026-05-06 18:04 26.68440 -80.08834 25 ft 2 kts 272°
2026-05-06 18:05 26.68439 -80.08822 23 ft 0 kts 272°
2026-05-06 18:08 26.68440 -80.08829 22 ft 2 kts 272°
2026-05-06 18:09 26.68441 -80.08872 22 ft 7 kts 272°
2026-05-06 18:09 26.68443 -80.08933 22 ft 9 kts 272°
2026-05-06 18:09 26.68447 -80.09012 22 ft 12 kts 273°
2026-05-06 18:09 26.68425 -80.09097 22 ft 13 kts 201°
2026-05-06 18:10 26.68358 -80.09125 22 ft 10 kts 256°
2026-05-06 18:10 26.68361 -80.09210 22 ft 12 kts 273°
2026-05-06 18:10 26.68365 -80.09307 24 ft 13 kts 272°
2026-05-06 18:10 26.68370 -80.09416 22 ft 15 kts 273°
2026-05-06 18:11 26.68375 -80.09537 22 ft 16 kts 273°
2026-05-06 18:11 26.68381 -80.09670 22 ft 18 kts 272°
2026-05-06 18:11 26.68387 -80.09816 22 ft 20 kts 273°
2026-05-06 18:11 26.68394 -80.09973 21 ft 21 kts 273°
2026-05-06 18:12 26.68402 -80.10144 21 ft 23 kts 272°
2026-05-06 18:12 26.68409 -80.10328 21 ft 25 kts 272°
2026-05-06 18:12 26.68418 -80.10525 21 ft 25 kts 272°
2026-05-06 18:12 26.68424 -80.10656 21 ft 16 kts 273°
2026-05-06 18:13 26.68429 -80.10770 21 ft 7 kts 273°
2026-05-06 18:13 26.68427 -80.10798 21 ft 0 kts 256°
2026-05-06 18:14 26.68425 -80.10804 21 ft 3 kts 249°
2026-05-06 18:14 26.68386 -80.10823 21 ft 8 kts 182°
2026-05-06 18:15 26.68325 -80.10813 21 ft 9 kts 139°
2026-05-06 18:15 26.68317 -80.10767 21 ft 0 kts 92°
2026-05-06 18:15 26.68316 -80.10736 21 ft 20 kts 92°
2026-05-06 18:15 26.68297 -80.10286 22 ft 92 kts 92°
2026-05-06 18:16 26.68256 -80.09354 22 ft 145 kts 93°
2026-05-06 18:16 26.68210 -80.08089 261 ft 170 kts 92°
2026-05-06 18:16 26.68173 -80.06756 973 ft 172 kts 91°
2026-05-06 18:16 26.68296 -80.05416 1731 ft 176 kts 76°
2026-05-06 18:17 26.68798 -80.04097 2111 ft 196 kts 61°
2026-05-06 18:17 26.69505 -80.02704 2434 ft 215 kts 61°
2026-05-06 18:17 26.70274 -80.01179 2785 ft 235 kts 61°
2026-05-06 18:17 26.71106 -79.99517 3246 ft 254 kts 61°
2026-05-06 18:18 26.71999 -79.97756 3872 ft 265 kts 58°
2026-05-06 18:18 26.73091 -79.96059 4635 ft 272 kts 52°
2026-05-06 18:18 26.74278 -79.94391 5445 ft 276 kts 51°
2026-05-06 18:18 26.75511 -79.92735 6278 ft 278 kts 49°
2026-05-06 18:19 26.76768 -79.91085 7078 ft 279 kts 48°
2026-05-06 18:19 26.78040 -79.89435 7845 ft 281 kts 48°
2026-05-06 18:19 26.79325 -79.87773 8569 ft 284 kts 48°
2026-05-06 18:19 26.80626 -79.86092 9304 ft 287 kts 47°
2026-05-06 18:20 26.81936 -79.84400 10029 ft 289 kts 47°
2026-05-06 18:20 26.83283 -79.82661 10356 ft 306 kts 47°
2026-05-06 18:20 26.84728 -79.80799 10484 ft 328 kts 47°
2026-05-06 18:20 26.86264 -79.78812 10653 ft 345 kts 47°
2026-05-06 18:21 26.87848 -79.76752 11106 ft 351 kts 47°
2026-05-06 18:21 26.89448 -79.74666 11675 ft 354 kts 47°
2026-05-06 18:21 26.91055 -79.72569 12257 ft 356 kts 47°
2026-05-06 18:21 26.92706 -79.70497 12845 ft 356 kts 42°
2026-05-06 18:22 26.94512 -79.68593 13440 ft 358 kts 41°
2026-05-06 18:22 26.96332 -79.66679 14013 ft 359 kts 41°
2026-05-06 18:22 26.98156 -79.64759 14508 ft 361 kts 40°
2026-05-06 18:22 26.99996 -79.62819 14965 ft 365 kts 40°
2026-05-06 18:23 27.01851 -79.60861 15419 ft 368 kts 40°
2026-05-06 18:23 27.03721 -79.58890 15868 ft 371 kts 40°
2026-05-06 18:23 27.05610 -79.56898 16313 ft 374 kts 40°
2026-05-06 18:23 27.07512 -79.54887 16761 ft 377 kts 39°
2026-05-06 18:24 27.09432 -79.52858 17198 ft 381 kts 39°
2026-05-06 18:24 27.11368 -79.50811 17640 ft 384 kts 39°
2026-05-06 18:24 27.13324 -79.48745 18075 ft 388 kts 39°
2026-05-06 18:24 27.15294 -79.46661 18497 ft 391 kts 39°
2026-05-06 18:25 27.17255 -79.44585 18871 ft 394 kts 39°
2026-05-06 18:25 27.19256 -79.42465 19237 ft 397 kts 39°
2026-05-06 18:25 27.21270 -79.40329 19623 ft 400 kts 39°
2026-05-06 18:25 27.23298 -79.38171 20012 ft 403 kts 39°
2026-05-06 18:26 27.25341 -79.36002 20400 ft 406 kts 39°
2026-05-06 18:26 27.27403 -79.33814 20782 ft 409 kts 39°
2026-05-06 18:26 27.29478 -79.31610 21157 ft 412 kts 39°
2026-05-06 18:26 27.31564 -79.29390 21522 ft 415 kts 39°
2026-05-06 18:27 27.33666 -79.27155 21881 ft 417 kts 39°
2026-05-06 18:27 27.35782 -79.24904 22233 ft 420 kts 39°
2026-05-06 18:27 27.37192 -79.23405 22463 ft 422 kts 39°
2026-05-06 18:27 27.40059 -79.20352 22932 ft 426 kts 39°
2026-05-06 18:28 27.41486 -79.18830 23155 ft 428 kts 39°
2026-05-06 18:28 27.43652 -79.16517 23492 ft 431 kts 39°
2026-05-06 18:28 27.45833 -79.14189 23800 ft 433 kts 39°
2026-05-06 18:28 27.48024 -79.11846 24086 ft 435 kts 39°
2026-05-06 18:29 27.50224 -79.09492 24376 ft 437 kts 39°
2026-05-06 18:29 27.52434 -79.07128 24667 ft 439 kts 39°
2026-05-06 18:29 27.54656 -79.04751 24966 ft 441 kts 39°
2026-05-06 18:29 27.56889 -79.02363 25254 ft 443 kts 38°
2026-05-06 18:30 27.59130 -78.99966 25545 ft 445 kts 38°
2026-05-06 18:30 27.61380 -78.97556 25827 ft 447 kts 38°
2026-05-06 18:30 27.63646 -78.95145 26113 ft 448 kts 36°
2026-05-06 18:30 27.66132 -78.93068 26395 ft 443 kts 26°
2026-05-06 18:31 27.68868 -78.91529 26683 ft 438 kts 16°
2026-05-06 18:31 27.71766 -78.90556 26979 ft 433 kts
2026-05-06 18:31 27.74738 -78.90079 27274 ft 432 kts
2026-05-06 18:31 27.77725 -78.89669 27581 ft 433 kts
2026-05-06 18:32 27.80722 -78.89250 27914 ft 434 kts
2026-05-06 18:32 27.83711 -78.88822 28370 ft 432 kts
2026-05-06 18:32 27.86683 -78.88394 28843 ft 430 kts
2026-05-06 18:32 27.89645 -78.87970 29320 ft 428 kts
2026-05-06 18:33 27.92593 -78.87549 29792 ft 426 kts
2026-05-06 18:33 27.95528 -78.87136 30268 ft 424 kts
2026-05-06 18:33 27.98455 -78.86728 30672 ft 423 kts
2026-05-06 18:33 28.01370 -78.86319 31010 ft 422 kts
2026-05-06 18:34 28.07234 -78.85499 31121 ft 429 kts
2026-05-06 18:34 28.13179 -78.84667 31124 ft 431 kts
2026-05-06 18:35 28.19125 -78.83812 31121 ft 431 kts
2026-05-06 18:35 28.25077 -78.82963 31122 ft 431 kts
2026-05-06 18:36 28.31019 -78.82123 31125 ft 430 kts
2026-05-06 18:36 28.36963 -78.81280 31127 ft 430 kts
2026-05-06 18:37 28.42870 -78.80448 31129 ft 431 kts
2026-05-06 18:37 28.48816 -78.79608 31128 ft 431 kts
2026-05-06 18:38 28.54762 -78.78761 31129 ft 431 kts
2026-05-06 18:38 28.60709 -78.77905 31129 ft 431 kts
2026-05-06 18:39 28.66653 -78.77060 31132 ft 430 kts
2026-05-06 18:40 28.75568 -78.75791 31132 ft 430 kts
2026-05-06 18:40 28.81506 -78.74938 31133 ft 430 kts
2026-05-06 18:41 28.87444 -78.74085 31129 ft 430 kts
2026-05-06 18:41 28.93376 -78.73233 31124 ft 430 kts
2026-05-06 18:42 28.99311 -78.72378 31126 ft 430 kts
2026-05-06 18:42 29.05244 -78.71522 31131 ft 430 kts
2026-05-06 18:43 29.11177 -78.70664 31133 ft 430 kts
2026-05-06 18:43 29.17108 -78.69819 31138 ft 430 kts
2026-05-06 18:44 29.23041 -78.68965 31132 ft 430 kts
2026-05-06 18:44 29.28967 -78.68108 31136 ft 429 kts
2026-05-06 18:45 29.34894 -78.67255 31135 ft 429 kts
2026-05-06 18:45 29.40817 -78.66396 31138 ft 429 kts
2026-05-06 18:46 29.46735 -78.65565 31138 ft 428 kts
2026-05-06 18:46 29.52651 -78.64739 31135 ft 428 kts
2026-05-06 18:47 29.58558 -78.63915 31129 ft 428 kts
2026-05-06 18:47 29.64470 -78.63085 31130 ft 428 kts 360°
2026-05-06 18:48 29.70378 -78.62249 31130 ft 428 kts 360°
2026-05-06 18:48 29.76288 -78.61417 31131 ft 428 kts 360°
2026-05-06 18:49 29.82198 -78.60582 31131 ft 428 kts 360°
2026-05-06 18:49 29.88107 -78.59733 31133 ft 428 kts 360°
2026-05-06 18:50 29.94016 -78.58884 31133 ft 428 kts 360°
2026-05-06 18:50 29.99923 -78.58049 31135 ft 428 kts 359°
2026-05-06 18:51 30.05832 -78.57210 31133 ft 428 kts 359°
2026-05-06 18:51 30.11745 -78.56371 31133 ft 428 kts 359°
2026-05-06 18:52 30.17658 -78.55527 31129 ft 428 kts 359°
2026-05-06 18:52 30.23572 -78.54681 31123 ft 428 kts 359°
2026-05-06 18:53 30.29492 -78.53837 31121 ft 429 kts 359°
2026-05-06 18:53 30.35416 -78.52989 31121 ft 429 kts 359°
2026-05-06 18:54 30.41349 -78.52132 31124 ft 430 kts 359°
2026-05-06 18:54 30.47286 -78.51235 31119 ft 431 kts
2026-05-06 18:55 30.53186 -78.50261 31116 ft 431 kts
2026-05-06 18:55 30.59131 -78.49261 31119 ft 432 kts
2026-05-06 18:56 30.65086 -78.48286 31119 ft 432 kts
2026-05-06 18:56 30.71048 -78.47323 31119 ft 433 kts
2026-05-06 18:57 30.77021 -78.46367 31118 ft 433 kts
2026-05-06 18:57 30.82997 -78.45400 31112 ft 434 kts
2026-05-06 18:58 30.88983 -78.44424 31110 ft 434 kts
2026-05-06 18:58 30.94972 -78.43434 31115 ft 435 kts
2026-05-06 18:59 31.00971 -78.42449 31113 ft 435 kts
2026-05-06 18:59 31.06976 -78.41470 31115 ft 436 kts
2026-05-06 19:00 31.12987 -78.40497 31115 ft 436 kts
2026-05-06 19:00 31.19004 -78.39508 31114 ft 437 kts
2026-05-06 19:01 31.25024 -78.38507 31116 ft 437 kts
2026-05-06 19:01 31.31048 -78.37513 31116 ft 437 kts
2026-05-06 19:02 31.37073 -78.36523 31113 ft 437 kts
2026-05-06 19:02 31.43101 -78.35536 31110 ft 438 kts
2026-05-06 19:03 31.49134 -78.34548 31114 ft 438 kts
2026-05-06 19:03 31.55169 -78.33548 31114 ft 438 kts
2026-05-06 19:04 31.61210 -78.32546 31121 ft 438 kts
2026-05-06 19:04 31.67252 -78.31540 31131 ft 439 kts
2026-05-06 19:05 31.73298 -78.30535 31131 ft 439 kts
2026-05-06 19:05 31.79344 -78.29526 31132 ft 439 kts
2026-05-06 19:06 31.85382 -78.28525 31125 ft 438 kts
2026-05-06 19:06 31.91418 -78.27519 31128 ft 438 kts
2026-05-06 19:07 31.97451 -78.26507 31127 ft 438 kts
2026-05-06 19:07 32.03437 -78.25498 31124 ft 438 kts
2026-05-06 19:08 32.09458 -78.24275 31124 ft 440 kts
2026-05-06 19:08 32.15478 -78.22907 31117 ft 440 kts
2026-05-06 19:09 32.21500 -78.21558 31118 ft 440 kts
2026-05-06 19:09 32.27523 -78.20254 31112 ft 440 kts
2026-05-06 19:10 32.33560 -78.18961 31109 ft 441 kts
2026-05-06 19:10 32.39598 -78.17658 31101 ft 442 kts
2026-05-06 19:11 32.45647 -78.16341 31099 ft 442 kts
2026-05-06 19:11 32.51700 -78.15021 31096 ft 443 kts
2026-05-06 19:12 32.57771 -78.13711 31103 ft 444 kts
2026-05-06 19:12 32.63845 -78.12391 31101 ft 444 kts
2026-05-06 19:13 32.69936 -78.11052 31097 ft 445 kts
2026-05-06 19:13 32.75004 -78.09944 31100 ft 446 kts
2026-05-06 19:14 32.81112 -78.08618 31093 ft 447 kts
2026-05-06 19:14 32.87234 -78.07279 31091 ft 447 kts
2026-05-06 19:15 32.93360 -78.05940 31094 ft 448 kts
2026-05-06 19:15 32.99496 -78.04596 31097 ft 448 kts
2026-05-06 19:16 33.05635 -78.03236 31093 ft 449 kts